[[{"header":{"parameterUnit":"m.s-1","parameterCategory":1,"la1":30.2991,"la2":30.254,"lo1":-89.0895,"lo2":-89.0444,"dy":0.0017,"dx":0.0017,"nx":28,"ny":28,"refTime":"2024-04-03T21:00:00:Z","depth":0,"parameterNumber":2,"parameterNumberName":"U-component_of_WINDS"},"data":[0,0,0,0,0,0,0,0,0,0,0,0,0,0,0,0,0,0,0,0,0,0,0,0,0,0,0,0,0,0,0,0,0,0,0,0,0,0,0,0,0,0,0,0,0,0,0,0,0,0,0,0,0,0,0,0,0,0,3.6611,3.6611,0,3.6618,3.6618,3.6618,3.6582,3.6581,3.658,3.6579,3.6585,3.6586,3.6587,0,0,0,0,0,0,0,0,0,0,0,0,0,3.6569,3.657,3.6611,3.6611,3.6611,3.6618,3.6618,3.6618,3.6582,3.6581,3.658,3.6578,3.6585,3.6586,3.6587,0,0,0,0,0,0,0,0,0,0,0,0,0,3.6583,3.657,3.6611,3.6594,3.6593,3.6618,3.6618,3.6618,3.6582,3.6581,3.6579,3.6578,3.6584,3.6586,3.6587,3.6629,0,0,3.6593,3.6593,0,0,0,0,0,0,0,0,3.6582,3.6584,3.6597,3.6596,3.6594,3.6597,3.6605,3.6621,3.6583,3.6586,3.6579,3.6577,3.659,3.6591,3.6596,3.6629,3.6629,3.6593,3.6594,3.6594,3.6595,0,0,0,0,0,0,0,3.6581,3.6584,3.6614,3.6597,3.6595,3.6587,3.6587,3.6608,3.6597,3.6586,3.6583,3.6585,3.6589,3.6594,3.6596,3.6629,3.6593,3.6594,3.6595,3.6596,3.6698,3.67,0,0,0,0,0,0,3.6582,3.6583,3.6614,3.6614,3.6584,3.6589,3.6589,3.6598,3.6597,3.6595,3.6586,3.6583,3.6592,3.6594,3.6596,3.6645,3.6594,3.6596,3.6597,3.6697,3.6699,3.6701,0,0,0,0,0,0,3.6582,3.6585,3.6613,3.6598,3.6601,3.6591,3.6601,3.6599,3.6604,3.6597,3.6594,3.6593,3.6591,3.6594,3.6621,3.6645,3.6597,3.6598,3.6695,3.6697,3.67,3.6743,0,0,0,0,0,0,3.6581,3.6585,3.66,3.6599,3.6602,3.6638,3.6603,3.66,3.6607,3.6603,3.6603,3.6601,3.659,3.6619,3.6623,3.6646,3.66,3.6693,3.6696,3.6699,3.674,3.6747,3.6753,0,0,0,0,0,3.6579,3.6612,3.6601,3.6605,3.662,3.664,3.6642,3.6628,3.6609,3.6624,3.662,3.6601,3.6642,3.6622,3.6626,3.665,3.6691,3.6695,3.6699,3.6737,3.6746,3.6753,0,0,0,0,0,0,3.6616,3.6611,3.6599,3.6632,3.6637,3.6634,3.6652,3.6638,3.6647,3.6643,3.6626,3.6627,3.6658,3.6657,3.6635,3.6691,3.6663,3.6668,3.6691,3.6699,3.6706,3.6705,3.6601,0,0,0,0,0,3.6628,3.6644,3.6639,3.6668,3.6671,3.6662,3.667,3.6659,3.6663,3.6665,3.6662,3.6666,3.668,3.669,3.6702,3.674,3.674,3.6759,3.6766,3.6771,3.6776,3.6797,3.6806,3.6713,3.6713,3.6713,0,0,3.6652,3.6652,3.6663,3.6676,3.6678,3.6695,3.6663,3.6683,3.6696,3.6667,3.6694,3.6692,3.6696,3.673,3.6744,3.673,3.6801,3.6776,3.6781,3.6782,3.6802,3.6811,3.6819,3.6716,3.6716,3.6715,0,0,3.6706,3.6707,3.6733,3.6736,3.674,3.6734,3.6741,3.674,3.6739,3.6765,3.6745,3.676,3.6784,3.6788,3.6793,3.6852,3.6836,3.6857,3.6892,3.6913,3.6921,3.6927,3.6949,3.6957,3.6861,3.6861,3.6861,0,3.6736,3.6761,3.6748,3.6769,3.6776,3.6753,3.6779,3.6783,3.6791,3.6796,3.678,3.6811,3.6812,3.6847,3.6862,3.6867,3.6874,3.6856,3.6921,3.6927,3.6933,3.6953,3.6961,3.6864,3.6863,3.6863,3.6863,0,3.6799,3.6817,3.6837,3.6846,3.6856,3.6879,3.687,3.6881,3.6871,3.6867,3.6895,3.6896,3.6909,3.6916,3.6906,3.695,3.6942,3.6924,3.6895,3.6944,3.6963,3.6971,3.6867,3.6866,3.6866,3.6865,0,0,3.6873,3.6877,3.6885,3.689,3.6894,3.6908,3.6931,3.6945,3.6955,3.6962,3.6982,3.7004,3.6988,3.6994,3.6984,3.7003,3.7051,3.6983,3.6983,3.6996,3.7102,3.7115,3.7124,3.704,3.7042,3.7043,3.7101,0,3.6927,3.6967,3.6957,3.6997,3.7014,3.6994,3.7014,3.702,3.7017,3.7032,3.7029,3.7045,3.7022,3.7026,3.7044,3.7041,3.7072,3.7037,3.7059,3.706,3.7058,3.7134,3.7148,3.7203,3.7109,3.711,3.7111,0,3.6994,3.7005,3.7047,3.7051,3.7057,3.7076,3.7089,3.7103,3.7109,3.7106,3.7114,3.7101,3.7126,3.7097,3.7131,3.7108,3.7116,3.7117,3.7118,3.712,3.7088,3.7138,3.722,3.7228,3.7122,3.7121,3.7121,0,3.7045,3.7071,3.71,3.7104,3.7109,3.7123,3.7125,3.713,3.714,3.7151,3.7157,3.717,3.7178,3.7189,3.7181,3.7161,3.7216,3.7187,3.7215,3.7215,3.7226,3.7226,3.7312,3.7232,3.7232,3.7232,3.7232,0,3.7106,3.7133,3.7123,3.7141,3.7171,3.716,3.719,3.719,3.7195,3.7213,3.7196,3.7213,3.7201,3.7218,3.7211,3.7241,3.7244,3.7243,3.724,3.7244,3.7244,3.7249,3.7245,3.7234,3.7234,3.7233,3.7233,0,3.7168,3.7162,3.7193,3.7196,3.7197,3.7219,3.7221,3.7239,3.7236,3.7259,3.7264,3.7259,3.7278,3.7271,3.7291,3.7287,3.7324,3.7317,3.7322,3.7321,3.7349,3.7347,3.7441,3.7453,3.7366,3.7367,3.7367,0,3.7207,3.7227,3.7233,3.7244,3.7248,3.7266,3.7276,3.7266,3.7278,3.7288,3.7304,3.7322,3.7335,3.7366,3.7365,3.738,3.7374,3.7406,3.7376,3.7379,3.7375,3.7374,3.7376,3.7411,3.7412,3.7413,3.7414,0,3.7277,3.7274,3.7289,3.7304,3.7317,3.7328,3.7338,3.7348,3.7339,3.7353,3.7372,3.7383,3.7404,3.7422,3.7437,3.7439,3.7426,3.7424,3.7431,3.7435,3.7437,3.7437,3.7339,3.7421,3.7421,3.742,3.742,3.7419,3.7328,3.7346,3.7354,3.7372,3.7379,3.7389,3.7405,3.7406,3.7422,3.7439,3.7432,3.7455,3.7463,3.7481,3.7486,3.7504,3.7492,3.7502,3.7505,3.7508,3.7512,3.7435,3.7507,3.7507,3.7506,3.7506,3.7506,0,3.7398,3.7402,3.7419,3.7434,3.7449,3.7436,3.7447,3.746,3.748,3.7489,3.7503,3.7527,3.7545,3.7546,3.7563,3.7577,3.7571,3.7582,3.7581,3.7582,3.7521,3.7514,3.7586,3.7586,3.7586,3.7586,3.7586,3.7586,3.7436,3.7466,3.7464,3.7498,3.7502,3.7525,3.7533,3.7542,3.7549,3.7577,3.7592,3.7593,3.7599,3.7616,3.7633,3.7632,3.764,3.7653,3.765,3.7594,3.7586,3.7578,3.7571,3.7654,3.7655,3.7709,3.771,3.771]},{"header":{"parameterUnit":"m.s-1","parameterCategory":1,"la1":30.2991,"la2":30.254,"lo1":-89.0895,"lo2":-89.0444,"dy":0.0017,"dx":0.0017,"nx":28,"ny":28,"refTime":"2024-04-03T21:00:00:Z","depth":0,"parameterNumber":3,"parameterNumberName":"V-component_of_WINDS"},"data":[0,0,0,0,0,0,0,0,0,0,0,0,0,0,0,0,0,0,0,0,0,0,0,0,0,0,0,0,0,0,0,0,0,0,0,0,0,0,0,0,0,0,0,0,0,0,0,0,0,0,0,0,0,0,0,0,0,0,-5.5434,-5.5436,0,-5.556,-5.5561,-5.5563,-5.5574,-5.5572,-5.5571,-5.557,-5.5694,-5.5698,-5.5702,0,0,0,0,0,0,0,0,0,0,0,0,0,-5.52,-5.5205,-5.5434,-5.5436,-5.5437,-5.556,-5.5562,-5.5563,-5.5574,-5.5572,-5.5571,-5.5569,-5.5692,-5.5697,-5.5703,0,0,0,0,0,0,0,0,0,0,0,0,0,-5.5311,-5.5206,-5.5434,-5.5458,-5.5461,-5.5559,-5.5562,-5.5564,-5.5574,-5.5572,-5.557,-5.5569,-5.569,-5.5697,-5.5704,-5.5785,0,0,-5.5724,-5.5727,0,0,0,0,0,0,0,0,-5.5305,-5.532,-5.5453,-5.5456,-5.546,-5.5549,-5.5524,-5.5638,-5.5575,-5.5531,-5.557,-5.5568,-5.5647,-5.5657,-5.5685,-5.5791,-5.5796,-5.5725,-5.5729,-5.5732,-5.5734,0,0,0,0,0,0,0,-5.5297,-5.5315,-5.5484,-5.5454,-5.5459,-5.5461,-5.5475,-5.5546,-5.5598,-5.5535,-5.5536,-5.5551,-5.5648,-5.5678,-5.5688,-5.5798,-5.5725,-5.5731,-5.5735,-5.5738,-5.598,-5.5983,0,0,0,0,0,0,-5.5286,-5.5308,-5.548,-5.5488,-5.5376,-5.5467,-5.5482,-5.5523,-5.5598,-5.5607,-5.5553,-5.5551,-5.5668,-5.568,-5.5692,-5.5795,-5.5732,-5.5738,-5.5742,-5.5978,-5.5981,-5.5983,0,0,0,0,0,0,-5.5281,-5.5301,-5.5475,-5.5398,-5.5421,-5.5473,-5.5518,-5.5526,-5.5556,-5.5611,-5.562,-5.5574,-5.5667,-5.5683,-5.5763,-5.5799,-5.5741,-5.5748,-5.5975,-5.5979,-5.5982,-5.5999,0,0,0,0,0,0,-5.5274,-5.5299,-5.5331,-5.5399,-5.5425,-5.5544,-5.5521,-5.553,-5.5568,-5.5568,-5.5633,-5.5642,-5.5666,-5.5753,-5.577,-5.5807,-5.5753,-5.5972,-5.5977,-5.5981,-5.5995,-5.6003,-5.6009,0,0,0,0,0,-5.5266,-5.5329,-5.5333,-5.5354,-5.5466,-5.5546,-5.5561,-5.5589,-5.5571,-5.5604,-5.564,-5.564,-5.5792,-5.5761,-5.578,-5.582,-5.597,-5.5975,-5.5981,-5.5992,-5.6001,-5.6009,0,0,0,0,0,0,-5.5262,-5.5339,-5.5343,-5.5431,-5.5483,-5.5548,-5.559,-5.5597,-5.5653,-5.5649,-5.568,-5.5695,-5.5775,-5.5805,-5.5769,-5.5904,-5.5879,-5.5889,-5.5882,-5.589,-5.5897,-5.5888,-5.5758,0,0,0,0,0,-5.5272,-5.5332,-5.5395,-5.5466,-5.5492,-5.5537,-5.5573,-5.559,-5.5644,-5.5665,-5.5706,-5.5757,-5.5817,-5.5855,-5.5913,-5.6,-5.6015,-5.6037,-5.6044,-5.6049,-5.6057,-5.6107,-5.6118,-5.6001,-5.6001,-5.6001,0,0,-5.5292,-5.5341,-5.5377,-5.5467,-5.5509,-5.557,-5.5555,-5.5619,-5.5665,-5.5674,-5.5754,-5.5786,-5.5845,-5.593,-5.5969,-5.5958,-5.6093,-5.6056,-5.606,-5.6065,-5.6113,-5.6124,-5.6134,-5.6005,-5.6004,-5.6003,0,0,-5.536,-5.5403,-5.5469,-5.5512,-5.5576,-5.5606,-5.5622,-5.5687,-5.571,-5.5791,-5.58,-5.5853,-5.5955,-5.5997,-5.6032,-5.6119,-5.6122,-5.6137,-5.6172,-5.622,-5.6229,-5.6238,-5.627,-5.6281,-5.6144,-5.6144,-5.6144,0,-5.5376,-5.547,-5.5501,-5.5567,-5.5606,-5.562,-5.5687,-5.5726,-5.5805,-5.5832,-5.5819,-5.5949,-5.5989,-5.6085,-5.6106,-5.6133,-5.6152,-5.6129,-5.6226,-5.6235,-5.6243,-5.6274,-5.6286,-5.6146,-5.6146,-5.6145,-5.6145,0,-5.5488,-5.5553,-5.5597,-5.5677,-5.5721,-5.5787,-5.5827,-5.5868,-5.5882,-5.5913,-5.5996,-5.6045,-5.6114,-5.6138,-5.6151,-5.6236,-5.6228,-5.622,-5.6195,-5.6255,-5.6285,-5.6297,-5.6148,-5.6147,-5.6147,-5.6147,0,0,-5.5556,-5.5653,-5.5669,-5.5706,-5.578,-5.583,-5.5896,-5.5966,-5.6002,-5.6056,-5.6112,-5.6199,-5.6194,-5.6233,-5.6251,-5.6294,-5.6362,-5.6281,-5.6283,-5.6295,-5.646,-5.6466,-5.6479,-5.6364,-5.6367,-5.6368,-5.6455,0,-5.5633,-5.5753,-5.5784,-5.5886,-5.5947,-5.5963,-5.602,-5.6071,-5.6103,-5.6158,-5.6191,-5.6253,-5.624,-5.6265,-5.6308,-5.6344,-5.6395,-5.6338,-5.6417,-5.6419,-5.6402,-5.6494,-5.65,-5.658,-5.6467,-5.6469,-5.647,0,-5.5739,-5.5799,-5.5908,-5.5976,-5.6002,-5.6054,-5.6122,-5.6175,-5.6233,-5.6253,-5.6298,-5.6313,-5.6382,-5.6354,-5.6451,-5.6411,-5.6445,-5.6468,-5.6472,-5.6481,-5.6448,-5.6506,-5.6606,-5.6618,-5.6489,-5.6487,-5.6486,0,-5.5779,-5.5887,-5.5967,-5.5997,-5.6078,-5.6115,-5.615,-5.6206,-5.6247,-5.6305,-5.6332,-5.6397,-5.6433,-5.6482,-5.6514,-5.6491,-5.6608,-5.6582,-5.6626,-5.6626,-5.665,-5.6648,-5.6758,-5.6671,-5.6671,-5.6671,-5.667,0,-5.5862,-5.5928,-5.5986,-5.6035,-5.611,-5.6145,-5.6218,-5.6253,-5.6304,-5.636,-5.6376,-5.6427,-5.6466,-5.6523,-5.6548,-5.6625,-5.664,-5.6658,-5.6664,-5.6657,-5.6655,-5.668,-5.6675,-5.6674,-5.6673,-5.6673,-5.6672,0,-5.5919,-5.5961,-5.6049,-5.6119,-5.6139,-5.6191,-5.6251,-5.6299,-5.6331,-5.6402,-5.642,-5.6471,-5.6539,-5.6576,-5.666,-5.6678,-5.6764,-5.6766,-5.6745,-5.6747,-5.679,-5.6786,-5.6919,-5.6939,-5.6838,-5.6839,-5.684,0,-5.597,-5.6022,-5.6099,-5.6139,-5.6176,-5.6239,-5.6281,-5.6317,-5.6361,-5.6433,-5.6472,-5.6542,-5.66,-5.6708,-5.6751,-5.6817,-5.6821,-5.6864,-5.6831,-5.6823,-5.6823,-5.682,-5.6826,-5.6869,-5.687,-5.6871,-5.6871,0,-5.6056,-5.6075,-5.6136,-5.6206,-5.6257,-5.6313,-5.6368,-5.6399,-5.6444,-5.6492,-5.6564,-5.6609,-5.6697,-5.6766,-5.6836,-5.687,-5.6879,-5.6882,-5.6896,-5.6889,-5.6875,-5.6884,-5.6761,-5.6878,-5.6878,-5.6877,-5.6877,-5.6876,-5.6113,-5.616,-5.6223,-5.6291,-5.6338,-5.6389,-5.6439,-5.6479,-5.654,-5.6616,-5.6633,-5.6709,-5.6767,-5.6861,-5.6899,-5.6958,-5.6949,-5.6969,-5.6974,-5.6978,-5.6981,-5.6866,-5.697,-5.697,-5.697,-5.697,-5.697,0,-5.62,-5.6242,-5.6305,-5.6383,-5.6438,-5.6443,-5.6505,-5.655,-5.6617,-5.6671,-5.6729,-5.6812,-5.688,-5.6929,-5.6998,-5.7036,-5.7042,-5.7053,-5.7051,-5.7059,-5.6984,-5.6965,-5.7048,-5.7048,-5.7048,-5.7048,-5.7048,-5.7048,-5.6253,-5.6334,-5.6361,-5.6466,-5.6506,-5.6582,-5.6618,-5.6666,-5.671,-5.6802,-5.686,-5.6893,-5.6946,-5.7019,-5.7082,-5.7095,-5.7119,-5.7131,-5.7144,-5.7072,-5.7064,-5.7056,-5.7039,-5.7136,-5.7136,-5.7215,-5.7215,-5.7216]}]]